Regional Weather Roundup
Issued by NWS Cleveland, OH

Home | Current Version | Previous Version | Text Only | Print | Product List | Glossary Off
Versions: 1 2 3 4 5 6 7 8 9 10 11 12 13 14 15 16 17 18 19 20 21 22 23 24 25 26 27 28 29 30 31 32 33 34 35 36 37 38 39 40 41 42 43 44 45 46 47 48 49 50

000
ASUS41 KCLE 222012
RWRCLE
OHIO REGIONAL WEATHER ROUNDUP
NATIONAL WEATHER SERVICE WILMINGTON, OH
400 PM EDT SAT JUL 22 2017

NOTE: "FAIR" INDICATES FEW OR NO CLOUDS BELOW 12,000 FEET WITH NO
SIGNIFICANT WEATHER AND/OR OBSTRUCTIONS TO VISIBILITY.

OHZ001>008-015>018-024>027-034-035-043-044-222100-
   NORTHWEST OHIO

CITY           SKY/WX    TMP DP  RH WIND       PRES   REMARKS
DEFIANCE       FAIR     N/A N/A N/A W8        29.79S
FINDLAY        FAIR      85  70  60 W14G24    29.77F
TOLEDO EXPRESS FAIR      84  73  69 SW14      29.76F HX  90
TOLEDO EXEC    FAIR      84  72  67 W9        29.76F
LIMA           PTSUNNY   83  73  72 W15G22    29.80F
$$

OHZ009>014-019>023-028>033-038-089-222100-
   NORTHEAST OHIO

CITY           SKY/WX    TMP DP  RH WIND       PRES   REMARKS
CLE-HOPKINS    CLOUDY    82  73  74 VRB6      29.79F
CLE-LAKEFRONT  PTSUNNY   81  71  71 SW8       29.76F
CUY CO. ARPT   PTSUNNY   82  73  74 W5        29.80F
LORAIN-ELYRIA  PTSUNNY   80  69  69 W9        29.78F
ASHTABULA      PTSUNNY   77  72  84 SW6       29.81F
AKRON-CANTON   CLOUDY    78  70  76 SW10      29.81F
WOOSTER        FAIR      76  73  91 SW6       29.81F
MANSFIELD      FAIR      80  73  79 SW15      29.81F
YOUNGSTOWN     LGT RAIN  76  71  85 W7        29.81F
$$

OHZ042-051>053-060>062-070>072-077>081-222100-
  SOUTHWEST OHIO

CITY           SKY/WX    TMP DP  RH WIND       PRES   REMARKS
CINC-COVINGTON PTSUNNY   88  77  69 SW9       29.83R HX 100
CINC-LUNKEN    FAIR      89  77  67 SW12      29.81R HX 101
HAMILTON       FAIR      91  78  65 SW12      29.82R HX 106
DAYTON         PTSUNNY   86  75  69 W15       29.82F HX  95
WRIGHT-PAT AFB PTSUNNY   86  80  81 W10       29.79F HX 101
DAYTON GENERAL FAIR      89  73  59 W13       29.80F HX  97
WILMINGTON     FAIR      90  77  65 SW17      29.81F HX 103
$$

OHZ036-037-039>041-045>050-054>059-063>069-073>076-082>088-222100-
  CENTRAL AND SOUTHEAST OHIO

CITY           SKY/WX    TMP DP  RH WIND       PRES   REMARKS
COLUMBUS       TSTM      84  78  82 NW3       29.77F HX  95
OSU AIRPORT    FAIR      84  78  82 W9        29.78F HX  95
BOLTON FIELD   TSTM      84  77  79 W9        29.80F HX  94
RICKENBACK AFB PTSUNNY   85  79  82 W5        29.77F HX  99
NEWARK         CLOUDY    81  76  84 SW3       29.80F
MARION         LGT RAIN  80  74  81 SW5       29.80F
LANCASTER      TSTM      72  72 100 VRB6      29.79F FOG
ZANESVILLE     LGT RAIN  78  75  90 CALM      29.80F FOG
NEW PHILLY     HVY RAIN  76  73  91 W5        29.83F VSB 3/4
$$




USA.gov is the U.S. government's official web portal to all federal, state and local government web resources and services.